Regional Weather Roundup
Issued by NWS

Home | Current Version | Previous Version | Text Only | Print | Product List | Glossary On
Versions: 1 2 3 4 5 6 7 8 9 10 11 12 13 14 15 16 17 18 19 20 21 22 23 24 25 26 27 28 29 30 31 32 33 34 35 36 37 38 39 40 41 42 43 44 45 46 47 48 49 50
000
ASCA44 KEWX 081520
RWRMX

LATIN AMERICA AND CARIBBEAN REGIONAL WEATHER ROUNDUP
NATIONAL WEATHER SERVICE AUSTIN/SAN ANTONIO TX
900 AM CST THU DEC 08 2016

NOTE: "FAIR" INDICATED FEW OR NO CLOUDS BELOW 12,000 FEET WITH NO
SIGNIFICANT WEATHER AND/OR OBSTRUCTIONS TO VISIBILITY.

BAJA CALIFORNIA

CITY           SKY/WX    TMP DP  RH WIND       PRES   REMARKS
LORETO         MOSUNNY   64  55  72 CALM      30.09R
LA PAZ         MOSUNNY   55  50  82 CALM      30.09R
MEXICALI       CLEAR     46  23  39 CALM      30.22R
S.J. DEL CABO  SUNNY     66  54  63 W7        30.06R
TIJUANA        CLEAR     48  37  66 CALM      30.23R

NORTHWESTERN MEXICO

CITY           SKY/WX    TMP DP  RH WIND       PRES   REMARKS
CULIACAN       SUNNY     59  52  77 CALM      30.04R
DURANGO        MOSUNNY   37  23  56 CALM      30.32R
GUAYMAS        SUNNY     57  52  82 CALM      30.07R
HERMOSILLO     CLEAR     54  46  76 CALM      30.14R
CD. JUAREZ     CLOUDY    36  27  69 E15       30.28R WCI  26
LOS MOCHIS     SUNNY     55  50  82 CALM      30.07R
OBREGON        SUNNY     50  45  81 SE2       30.04R

NORTHEASTERN MEXICO

CITY           SKY/WX    TMP DP  RH WIND       PRES   REMARKS
CHIHUAHUA      MOSUNNY   39  36  87 N8        30.30R WCI  34
MATAMOROS      RAIN      63  63 100 N12       30.15R VSB 1
MONCLOVA       DRZL/FOG  50  50 100 NE14      30.35R VSB 1/2 WCI  45
MONTERREY      CLOUDY    55  48  76 NW18G36   30.25R
NUEVO LAREDO   DRIZZLE   52  48  87 N7        30.35R FOG
PIEDRAS NEGRAS CLOUDY    46  43  87 NW14      30.43R FOG     WCI  40
REYNOSA        RAIN      54  52  94 N17       30.22R FOG
SALTILLO       FOG       48  46  93 CALM      30.34R VSB 3/8
TORREON        SUNNY     52  37  58 CALM      30.20R
CD. VICTORIA   CLOUDY    64  59  82 NW16      30.16R

WESTERN MEXICO

CITY           SKY/WX    TMP DP  RH WIND       PRES   REMARKS
AGUASCALIENTES SUNNY     54  30  40 N2        30.35R
COLIMA         SUNNY     72  61  68 CALM      30.02F
DEL BAJIO      MOSUNNY   59  37  44 CALM      30.39R
GUADALAJARA    SUNNY     54  45  71 CALM      30.28R
MANZANILLO     SUNNY     75  70  83 CALM      29.93R
MAZATLAN       MOSUNNY   59  54  82 N3        30.01R
P. VALLARTA    SUNNY     64  63  94 NE8       30.00R
URUAPAN        SUNNY     55  50  82 CALM      30.25R
ZACATECAS        N/A    N/A N/A N/A MISG        N/A

CENTRAL MEXICO

CITY           SKY/WX    TMP DP  RH WIND       PRES   REMARKS
CUERNAVACA     MOSUNNY   70  50  49 CALM      30.22R
MEXICO CITY    SUNNY     61  43  51 S2        30.42S
MORELIA        SUNNY     54  45  71 CALM      30.34R
POZA RICA      CLOUDY    73  73 100 N6        30.09R FOG
PUEBLA         SUNNY     55  43  62 N7        30.41R
QUERETARO      SUNNY     55  39  54 E2        30.40R
S. LUIS POTOSI SUNNY     52  27  37 CALM      30.32R
TAMPICO        CLOUDY    77  77 100 CALM      30.07R FOG
TOLUCA         SUNNY     46  43  87 SW6       30.49R FOG     WCI  43

SOUTHERN MEXICO

CITY           SKY/WX    TMP DP  RH WIND       PRES   REMARKS
ACAPULCO       SUNNY     79  72  78 CALM      29.97R
B. DE HUATULCO SUNNY     77  61  57 CALM      30.04R
OAXACA         PTSUNNY   63  52  67 N2        30.31R
P. ESCONDIDO   MOSUNNY   79  70  73 NE9       30.07R
VERACRUZ       SUNNY     79  75  89 E5        30.03R FOG
ZIHUATANEJO    SUNNY     77  70  78 CALM      29.97R

YUCATAN PENINSULA

CITY           SKY/WX    TMP DP  RH WIND       PRES   REMARKS
CAMPECHE       MOSUNNY   81  75  83 E14       30.01R
CANCUN         MOSUNNY   84  73  70 SE12      30.08R HX  91
CHETUMAL       PTSUNNY   77  75  94 SE6       30.04R
CD. DEL CARMEN MOSUNNY   81  73  78 SE14      30.02R
COZUMEL        MOSUNNY   82  75  78 E8        30.05R
MERIDA         CLOUDY    79  73  83 SE9       30.06R HAZE
MINATITLAN     SUNNY     81  72  74 N12       29.98R
TAPACHULA      SUNNY     82  73  74 E3        29.95R
TUX. GUTIERREZ FOG       68  68 100 CALM      30.06R VSB 1
VILLAHERMOSA   CLOUDY    79  75  89 SE6       30.02R HAZE

CENTRAL AMERICA

CITY           SKY/WX    TMP DP  RH WIND       PRES   REMARKS
BELIZE CITY    PTSUNNY   86  77  74 E8        30.04R HX  97
MANAGUA        MOSUNNY   82  70  65 E9        29.92S

CARIBBEAN

CITY           SKY/WX    TMP DP  RH WIND       PRES   REMARKS
ARUBA          MOSUNNY   86  75  70 E17       29.94S HX  95
CURACAO        MOSUNNY   86  75  70 E13       29.94F HX  95
KINGSTON       MOSUNNY   84  73  70 S7        30.00  HX  91
NASSAU         MOSUNNY   82  73  74 VRB2      30.10
SAN JUAN       PTSUNNY   84  70  61 E13       30.06F
SANTO DOMINGO  MOSUNNY   82  73  74 NE12      30.03F
ST. CROIX      MOSUNNY   84  72  65 E20G25    30.04
ST. KITTS      PTSUNNY   84  72  65 NE15      30.06R
ST. MAARTEN    MOSUNNY   84  72  65 NE15      30.03S
ST. THOMAS     MOSUNNY   82  72  69 NE10G20   30.05

$$





USA.gov is the U.S. government's official web portal to all federal, state and local government web resources and services.